Beaumont, TX

12:34 AM CDT on August 26, 2016 (GMT -0500)
Beaumont Municipal

Weather History for KBMT - July, 2013

Change the Weather History Date:

Tuesday, July 30, 2013

  Actual Average (KBPT) Record (KBPT)
Temperature  
Mean Temperature 82 °F 83 °F  
Max Temperature 94 °F 92 °F 102 °F (2015)
Min Temperature 72 °F 74 °F 68 °F (1994)
Degree Days  
Heating Degree Days 0 0  
Month to date heating degree days 0  
Since 1 June heating degree days 0  
Since 1 July heating degree days 0  
Cooling Degree Days 18 18  
Month to date cooling degree days 540  
Year to date cooling degree days 1590  
Since 1 June cooling degree days 1024  
Growing Degree Days 32 (Base 50)    
Moisture  
Dew Point 74 °F    
Average Humidity 80    
Maximum Humidity 100    
Minimum Humidity 43    
Precipitation  
Precipitation 0.00 in 0.18 in 1.25 in (1990)
Month to date precipitation 5.78  
Year to date precipitation 33.68  
Snow  
Snow 0.00 in 0.00 in 0.00 in ()
Month to date snowfall 0.0  
Since 1 June snowfall 0.0  
Since 1 July snowfall 0.0  
Snow Depth -    
Sea Level Pressure  
Sea Level Pressure 30.09 in    
Wind  
Wind Speed 3 mph (South)    
Max Wind Speed 12 mph    
Max Gust Speed 9 mph    
Visibility 9 miles    
Events Fog    
T = Trace of Precipitation, MM = Missing Value Source: NWS Daily Summary

Daily Weather History Graph

Daily Weather History Graph

Search for Another Location

Airport or City:

Trip Planner

Search our weather history database for the weather conditions in past years. The results will help you decide how hot, cold, wet, or windy it might be!

Date:

Astronomy

Jul. 30, 2013 Rise Set
Actual Time 6:34 AM CDT 8:11 PM CDT
Civil Twilight 6:08 AM CDT 8:37 PM CDT
Nautical Twilight 5:37 AM CDT 9:08 PM CDT
Astronomical Twilight 5:04 AM CDT 9:41 PM CDT
Moon 12:49 AM CDT (7/30) 2:33 PM CDT (7/30)
Length of Visible Light 14h 28m
Length of Day
13h 36m
Last Quarter, 41% of the Moon is Illuminated
Jul 30
Last Quarter
Aug 6
New
Aug 14
First Quarter
Aug 20
Full
Aug 28
Last Quarter

Hourly Weather History & Observations

Time (CDT) Temp. Heat Index Dew Point Humidity Pressure Visibility Wind Dir Wind Speed Gust Speed Precip Events Conditions
12:15 AM 75.9 °F - 75.9 °F 100% 30.10 in 10.0 mi Calm Calm - N/A   Clear
12:35 AM 74.7 °F - 74.7 °F 100% 30.11 in 7.0 mi Calm Calm - N/A   Clear
12:55 AM 74.7 °F - 74.7 °F 100% 30.10 in 7.0 mi Calm Calm - N/A   Clear
1:15 AM 74.8 °F - 74.8 °F 100% 30.09 in 7.0 mi Calm Calm - N/A   Clear
1:35 AM 74.5 °F - 74.5 °F 100% 30.08 in 10.0 mi Calm Calm - N/A   Clear
1:55 AM 74.7 °F - 74.7 °F 100% 30.09 in 10.0 mi Calm Calm - N/A   Clear
2:15 AM 74.5 °F - 74.5 °F 100% 30.09 in 10.0 mi Calm Calm - N/A   Clear
2:35 AM 74.7 °F - 74.7 °F 100% 30.08 in 10.0 mi Calm Calm - N/A   Clear
2:55 AM 74.7 °F - 74.7 °F 100% 30.08 in 10.0 mi SSE 3.5 mph - N/A   Clear
3:15 AM 75.0 °F - 75.0 °F 100% 30.07 in 10.0 mi South 3.5 mph - N/A   Clear
3:35 AM 75.2 °F - 75.2 °F 100% 30.08 in 10.0 mi Calm Calm - N/A   Clear
3:55 AM 75.2 °F - 75.2 °F 100% 30.08 in 10.0 mi Calm Calm - N/A   Clear
4:15 AM 73.9 °F - 73.9 °F 100% 30.08 in 5.0 mi Calm Calm - N/A   Clear
4:35 AM 73.0 °F - 73.0 °F 100% 30.08 in 7.0 mi SE 3.5 mph - N/A   Clear
4:55 AM 73.4 °F - 73.4 °F 100% 30.09 in 7.0 mi Calm Calm - N/A   Clear
5:15 AM 73.2 °F - 73.2 °F 100% 30.10 in 3.0 mi Calm Calm - N/A   Clear
5:35 AM 72.7 °F - 72.7 °F 100% 30.10 in 1.5 mi Calm Calm - N/A   Mist
5:55 AM 72.5 °F - 72.5 °F 100% 30.10 in 0.5 mi Calm Calm - N/A Fog Fog
6:15 AM 72.1 °F - 72.1 °F 100% 30.10 in 0.8 mi Calm Calm - N/A   Mist
6:35 AM 72.5 °F - 72.5 °F 100% 30.11 in 4.0 mi Calm Calm - N/A   Clear
6:55 AM 73.0 °F - 73.0 °F 100% 30.12 in 1.8 mi Calm Calm - N/A   Mist
7:15 AM 73.4 °F - 73.4 °F 100% 30.12 in 4.0 mi SE 3.5 mph - N/A   Clear
7:35 AM 75.2 °F - 75.2 °F 100% 30.12 in 5.0 mi Calm Calm - N/A   Clear
7:55 AM 76.5 °F - 76.5 °F 100% 30.13 in 7.0 mi Calm Calm - N/A   Clear
8:15 AM 77.9 °F - 77.9 °F 100% 30.13 in 7.0 mi North - - N/A   Clear
8:35 AM 80.1 °F 87.4 °F 80.1 °F 100% 30.13 in 10.0 mi SSW 5.8 mph - N/A   Clear
8:55 AM 81.7 °F 90.2 °F 78.3 °F 89% 30.14 in 10.0 mi SSW 5.8 mph - N/A   Clear
9:15 AM 83.7 °F 93.1 °F 76.8 °F 80% 30.14 in 10.0 mi SSW 6.9 mph - N/A   Clear
9:35 AM 84.7 °F 94.4 °F 76.3 °F 76% 30.14 in 10.0 mi SSW 4.6 mph - N/A   Scattered Clouds
9:55 AM 85.8 °F 95.1 °F 75.6 °F 71% 30.14 in 10.0 mi SSW 8.1 mph - N/A   Scattered Clouds
10:15 AM 87.1 °F 96.3 °F 74.8 °F 67% 30.14 in 10.0 mi SSW 5.8 mph - N/A   Scattered Clouds
10:35 AM 86.9 °F 95.9 °F 74.8 °F 67% 30.14 in 10.0 mi South 4.6 mph - N/A   Scattered Clouds
10:55 AM 86.7 °F 95.5 °F 74.5 °F 67% 30.14 in 10.0 mi SW 4.6 mph - N/A   Scattered Clouds
11:15 AM 87.8 °F 95.6 °F 73.4 °F 62% 30.14 in 10.0 mi WSW 5.8 mph - N/A   Clear
11:55 AM 88.9 °F 97.1 °F 73.2 °F 60% 30.14 in 10.0 mi SW 6.9 mph - N/A   Scattered Clouds
12:15 PM 89.6 °F 97.7 °F 73.0 °F 58% 30.13 in 10.0 mi SW 4.6 mph - N/A   Scattered Clouds
12:35 PM 89.8 °F 98.6 °F 73.8 °F 59% 30.13 in 10.0 mi South 5.8 mph - N/A   Mostly Cloudy
1:15 PM 90.7 °F 97.4 °F 71.4 °F 53% 30.11 in 10.0 mi WSW 5.8 mph - N/A   Scattered Clouds
1:35 PM 91.8 °F 98.1 °F 70.7 °F 50% 30.10 in 10.0 mi Calm Calm - N/A   Clear
1:55 PM 91.9 °F 97.4 °F 70.0 °F 48% 30.10 in 10.0 mi SSW 5.8 mph - N/A   Clear
2:15 PM 92.5 °F 99.6 °F 71.6 °F 50% 30.09 in 10.0 mi SSE 6.9 mph - N/A   Clear
2:35 PM 92.7 °F 100.5 °F 72.0 °F 51% 30.09 in 10.0 mi SSE 3.5 mph - N/A   Scattered Clouds
2:55 PM 93.4 °F 98.1 °F 68.4 °F 44% 30.08 in 10.0 mi South 11.5 mph - N/A   Clear
3:15 PM 93.2 °F 97.7 °F 68.4 °F 44% 30.08 in 10.0 mi SW 9.2 mph - N/A   Clear
3:35 PM 93.6 °F 99.0 °F 69.1 °F 45% 30.08 in 10.0 mi SSW 9.2 mph - N/A   Scattered Clouds
3:55 PM 93.6 °F 100.1 °F 70.3 °F 47% 30.07 in 10.0 mi SSW 9.2 mph - N/A   Scattered Clouds
4:15 PM 93.4 °F 97.6 °F 68.0 °F 43% 30.07 in 10.0 mi South 9.2 mph - N/A   Clear
4:35 PM 92.7 °F 99.4 °F 71.1 °F 49% 30.07 in 7.0 mi South 5.8 mph 9.2 mph N/A   Clear
4:55 PM 92.1 °F 98.3 °F 70.2 °F 49% 30.07 in 7.0 mi SSE 8.1 mph - N/A   Clear
5:15 PM 91.4 °F 96.3 °F 69.3 °F 48% 30.07 in 7.0 mi South 8.1 mph - N/A   Clear
5:35 PM 90.9 °F 95.8 °F 69.4 °F 49% 30.06 in 7.0 mi South 6.9 mph - N/A   Clear
5:55 PM 90.3 °F 96.2 °F 70.7 °F 52% 30.06 in 10.0 mi South 10.4 mph - N/A   Clear
6:15 PM 89.6 °F 96.2 °F 71.6 °F 55% 30.06 in 10.0 mi South 9.2 mph - N/A   Clear
6:35 PM 88.7 °F 95.7 °F 72.3 °F 58% 30.05 in 10.0 mi South 9.2 mph - N/A   Clear
6:55 PM 87.8 °F 95.2 °F 73.0 °F 61% 30.06 in 10.0 mi South 6.9 mph - N/A   Clear
7:15 PM 86.4 °F 93.4 °F 72.7 °F 64% 30.06 in 10.0 mi South 6.9 mph - N/A   Clear
7:35 PM 84.7 °F 91.0 °F 72.5 °F 67% 30.06 in 10.0 mi South 5.8 mph - N/A   Clear
7:55 PM 83.1 °F 89.5 °F 73.8 °F 73% 30.06 in 10.0 mi South 6.9 mph - N/A   Clear
8:15 PM 81.9 °F 88.0 °F 74.3 °F 78% 30.06 in 10.0 mi South 6.9 mph - N/A   Clear
8:35 PM 80.6 °F 85.7 °F 74.3 °F 81% 30.06 in 10.0 mi North - - N/A   Clear
8:55 PM 79.3 °F - 76.3 °F 90% 30.06 in 10.0 mi North - - N/A   Clear
9:15 PM 78.4 °F - 77.7 °F 98% 30.07 in 10.0 mi North - - N/A   Clear
9:35 PM 77.9 °F - 77.9 °F 100% 30.07 in 10.0 mi North - - N/A   Clear
9:55 PM 77.0 °F - 77.0 °F 100% 30.07 in 10.0 mi SSE 3.5 mph - N/A   Clear
10:15 PM 77.2 °F - 77.2 °F 100% 30.08 in 10.0 mi Calm Calm - N/A   Clear
10:35 PM 76.5 °F - 76.5 °F 100% 30.08 in 10.0 mi Calm Calm - N/A   Clear
10:55 PM 76.1 °F - 76.1 °F 100% 30.08 in 10.0 mi South 3.5 mph - N/A   Clear
11:15 PM 76.1 °F - 76.1 °F 100% 30.08 in 10.0 mi Calm Calm - N/A   Clear
11:55 PM 75.4 °F - 75.4 °F 100% 30.08 in 10.0 mi Calm Calm - N/A   Clear